Location: Calais Saint-Pierre
(50.9509°N, 1.8522°E)
Time: 13:27:15
(UTC+00:00)

Cosmos 2151 - Pass Details

Date: 15 May 2026
Orbit: 556 x 575 km, 82.5° (Epoch: 11 June)

Event Time Altitude Azimuth Distance (km) Brightness Sun altitude
Rises 20:49:03 0° 349° (N) 2,777 7.5 -9.7°
Reaches altitude 10° 20:51:15 10° 350° (N) 1,871 6.5 -9.9°
Maximum altitude 20:55:23 88° 75° (ENE) 570 2.9 -10.3°
Enters shadow 20:59:15 11° 170° (S) 1,759 4.9 -10.7°
